Total_Precipitation_Accumulation
1.25 1.25 1.36 1.54 1.64 1.70 1.88 1.85 1.81 1.84 1.94 1.95 1.94 1.93 1.87 1.79 1.91 2.12 2.21 2.41 2.55 2.58 2.52 2.55 2.53 2.68 2.73 2.61 2.72 2.86 3.11 3.29 2.93 2.39 2.48 2.62 2.56 2.32 2.10 1.91 1.79 1.76 1.74
1.26 1.30 1.37 1.48 1.57 1.64 1.72 1.80 1.86 1.86 1.97 2.02 2.01 1.96 1.81 1.80 1.91 2.01 2.13 2.31 2.43 2.50 2.60 2.70 2.48 2.61 2.73 2.67 2.70 2.71 2.86 3.14 3.00 2.82 2.76 2.83 2.76 2.51 2.25 1.97 1.65 1.49 1.56
1.40 1.39 1.36 1.42 1.42 1.48 1.59 1.68 1.81 1.89 1.97 2.08 2.10 2.03 1.97 1.99 2.06 2.11 2.18 2.31 2.38 2.43 2.53 2.54 2.49 2.64 2.51 2.58 2.70 2.66 2.67 2.72 2.85 2.78 2.63 2.69 2.62 2.43 2.25 1.95 1.69 1.66 1.49
1.31 1.35 1.39 1.40 1.44 1.55 1.65 1.74 1.83 1.85 1.91 1.92 1.89 1.98 2.04 2.09 2.12 2.13 2.13 2.14 2.19 2.24 2.20 2.12 2.09 2.14 2.18 2.37 2.37 2.39 2.49 2.56 2.64 2.57 2.51 2.57 2.57 2.59 2.43 2.13 1.97 1.81 1.61
1.33 1.30 1.37 1.49 1.52 1.57 1.60 1.65 1.72 1.74 1.72 1.88 1.90 2.00 2.08 2.05 1.94 2.01 2.03 1.96 2.10 2.02 1.87 1.83 1.85 1.92 1.93 2.02 1.92 2.04 2.25 2.33 2.37 2.44 2.49 2.65 2.64 2.75 2.60 2.32 2.20 2.07 1.79
1.34 1.45 1.54 1.55 1.47 1.55 1.59 1.63 1.66 1.71 1.80 1.88 1.91 2.01 2.08 1.94 2.00 2.04 2.07 2.04 2.06 1.99 1.93 1.85 1.70 1.71 1.69 1.70 1.69 1.74 1.91 2.05 2.22 2.39 2.43 2.52 2.60 2.57 2.53 2.40 2.29 2.13 1.86
1.41 1.42 1.62 1.74 1.64 1.70 1.73 1.74 1.71 1.73 1.87 1.93 2.05 2.11 2.06 2.17 2.13 1.97 1.99 1.94 1.95 1.98 2.00 1.97 1.67 1.48 1.61 1.55 1.66 1.64 1.61 1.67 1.78 1.94 2.04 2.17 2.40 2.50 2.59 2.48 2.48 2.35 2.05
1.51 1.59 1.86 2.02 1.89 1.88 1.89 1.91 1.94 2.02 2.06 2.13 2.15 2.08 2.04 2.12 2.10 1.78 1.69 1.61 1.71 1.80 1.85 1.90 1.90 1.79 1.76 1.77 1.80 1.75 1.65 1.63 1.73 1.72 1.75 1.97 2.34 2.64 2.68 2.61 2.65 2.51 2.20
1.71 1.85 2.10 2.33 2.43 2.37 2.21 2.26 2.33 2.31 2.28 2.35 2.37 2.32 2.19 2.20 2.04 1.69 1.54 1.46 1.60 1.68 1.73 1.72 1.75 1.67 1.72 1.61 1.57 1.58 1.57 1.53 1.55 1.55 1.56 1.69 1.97 2.35 2.55 2.57 2.65 2.55 2.30
1.91 1.93 2.13 2.38 2.46 2.41 2.38 2.55 2.65 2.55 2.44 2.49 2.41 2.28 2.16 2.17 2.12 1.78 1.58 1.48 1.61 1.70 1.78 1.75 1.72 1.64 1.61 1.44 1.36 1.40 1.37 1.39 1.49 1.48 1.44 1.44 1.56 1.86 2.18 2.18 2.26 2.39 2.15
1.99 1.99 2.10 2.32 2.58 2.51 2.52 2.60 2.69 2.68 2.68 2.70 2.60 2.47 2.29 2.23 2.23 1.89 1.66 1.51 1.58 1.65 1.58 1.57 1.56 1.56 1.34 1.24 1.22 1.23 1.26 1.28 1.41 1.45 1.45 1.49 1.56 1.65 1.78 1.86 1.95 2.05 2.03
2.00 1.99 2.04 2.29 2.41 2.44 2.58 2.63 2.73 2.84 2.82 2.78 2.75 2.56 2.49 2.42 2.14 1.85 1.66 1.61 1.66 1.68 1.63 1.59 1.57 1.46 1.23 1.13 1.01 0.96 1.00 1.00 1.04 1.18 1.23 1.27 1.36 1.44 1.54 1.69 1.87 1.95 1.96
1.77 1.78 1.90 2.08 2.16 2.28 2.39 2.34 2.40 2.54 2.52 2.53 2.54 2.46 2.49 2.60 2.41 1.95 1.65 1.57 1.60 1.64 1.73 1.79 1.59 1.41 1.26 1.13 1.08 0.99 0.91 0.85 0.94 1.04 1.10 1.10 1.17 1.29 1.48 1.69 1.88 2.09 2.04
1.70 1.67 1.79 2.04 2.15 2.21 2.28 2.25 2.30 2.34 2.40 2.45 2.47 2.41 2.44 2.57 2.52 2.18 1.85 1.63 1.53 1.47 1.49 1.48 1.37 1.28 1.17 1.05 0.99 0.90 0.81 0.84 0.92 0.94 1.02 1.10 1.21 1.39 1.50 1.53 1.65 1.88 2.07
1.83 1.81 1.93 2.01 2.08 2.25 2.32 2.33 2.33 2.32 2.29 2.29 2.28 2.21 2.22 2.32 2.32 2.09 1.81 1.64 1.52 1.48 1.43 1.40 1.36 1.36 1.25 1.16 1.09 1.05 1.06 1.09 1.05 1.02 1.09 1.20 1.27 1.34 1.46 1.54 1.63 1.70 1.75
1.94 1.93 1.93 1.91 1.96 1.98 2.00 1.95 1.91 1.84 1.82 1.79 1.78 1.69 1.65 1.81 1.79 1.50 1.35 1.38 1.39 1.37 1.28 1.29 1.35 1.40 1.35 1.28 1.24 1.20 1.21 1.20 1.17 1.19 1.22 1.29 1.34 1.38 1.45 1.60 1.75 1.78 1.69
2.00 1.86 1.76 1.70 1.73 1.73 1.77 1.83 1.87 1.76 1.66 1.56 1.49 1.37 1.27 1.46 1.52 1.35 1.22 1.18 1.15 1.15 1.13 1.18 1.22 1.31 1.37 1.29 1.20 1.15 1.13 1.17 1.27 1.30 1.30 1.33 1.42 1.48 1.54 1.64 1.78 1.89 1.82
2.00 1.88 1.69 1.59 1.60 1.62 1.73 1.77 1.77 1.76 1.71 1.50 1.34 1.24 1.11 1.20 1.32 1.29 1.18 1.04 1.00 0.99 1.00 1.11 1.18 1.25 1.34 1.32 1.24 1.24 1.26 1.29 1.28 1.30 1.34 1.37 1.45 1.52 1.57 1.62 1.68 1.77 1.79
1.99 1.88 1.73 1.67 1.68 1.62 1.58 1.63 1.62 1.62 1.67 1.57 1.35 1.26 1.20 1.23 1.31 1.27 1.13 0.96 0.98 0.99 1.00 1.07 1.14 1.22 1.26 1.26 1.27 1.31 1.33 1.36 1.32 1.33 1.39 1.45 1.47 1.56 1.57 1.61 1.70 1.81 1.83
1.68 1.67 1.63 1.64 1.63 1.58 1.57 1.60 1.66 1.71 1.75 1.65 1.47 1.35 1.24 1.20 1.24 1.25 1.14 1.04 1.02 1.00 1.00 1.07 1.15 1.21 1.26 1.29 1.37 1.46 1.47 1.51 1.52 1.48 1.50 1.57 1.52 1.52 1.53 1.56 1.68 1.74 1.75
1.48 1.43 1.38 1.35 1.38 1.40 1.43 1.54 1.66 1.73 1.77 1.64 1.41 1.25 1.14 1.01 1.09 1.11 1.14 1.17 1.17 1.18 1.21 1.22 1.27 1.32 1.35 1.43 1.51 1.59 1.61 1.61 1.64 1.58 1.55 1.62 1.61 1.62 1.64 1.61 1.62 1.74 1.76
1.54 1.37 1.21 1.16 1.19 1.26 1.43 1.56 1.59 1.58 1.52 1.46 1.34 1.23 1.20 1.08 1.06 1.08 1.13 1.15 1.17 1.21 1.19 1.19 1.20 1.26 1.31 1.37 1.43 1.49 1.52 1.53 1.58 1.61 1.60 1.60 1.61 1.59 1.63 1.62 1.59 1.68 1.78
1.37 1.16 0.99 0.96 1.01 1.16 1.35 1.58 1.59 1.47 1.36 1.31 1.31 1.29 1.27 1.23 1.17 1.13 1.16 1.17 1.16 1.14 1.15 1.20 1.20 1.21 1.25 1.25 1.26 1.33 1.36 1.38 1.41 1.49 1.59 1.56 1.57 1.59 1.62 1.66 1.65 1.68 1.76
1.26 1.09 0.95 0.91 0.96 1.11 1.30 1.53 1.51 1.38 1.32 1.32 1.32 1.34 1.35 1.33 1.25 1.20 1.19 1.20 1.19 1.16 1.14 1.19 1.22 1.18 1.18 1.21 1.17 1.12 1.12 1.11 1.13 1.26 1.41 1.51 1.54 1.59 1.59 1.63 1.70 1.69 1.76
1.17 1.09 1.00 1.00 1.07 1.22 1.43 1.56 1.48 1.36 1.32 1.29 1.29 1.37 1.42 1.39 1.37 1.34 1.33 1.34 1.33 1.31 1.25 1.20 1.20 1.15 1.09 1.09 1.12 1.08 1.09 0.99 0.96 1.03 1.13 1.27 1.34 1.44 1.50 1.54 1.66 1.70 1.72
1.12 1.11 1.07 1.10 1.18 1.31 1.42 1.48 1.44 1.36 1.36 1.32 1.29 1.32 1.38 1.43 1.47 1.50 1.51 1.45 1.39 1.33 1.25 1.19 1.16 1.14 1.09 1.03 1.00 0.98 0.97 0.93 0.90 0.96 1.00 1.08 1.19 1.28 1.39 1.46 1.50 1.58 1.60